Weather in Shaposhnikovo

Russia / Orenburg Oblast     51°41′36″N   51°17′34″E
temp.,
°C
wind,
m/s
gust,
m/s
humid.,
%
clouds,
%
prec.,
mm/h
press.,
hPa
HPBL,
m
23 may, mon
mon2323:00+7ese5888100 0.3 998480
02:00+7ene5893100 0.9 996510
05:00+7ne4695100 1.3 996398
08:00+7nne3493100 0.1 996303
11:00+8n3387100 0.3 998447
14:00+10sse017690 0.0 1000567
17:00+12s226594 0.1 10011025
20:00+11nw1175100 0.1 100114
24 may, tue
tue2423:00+10n2284100 0.2 100365
02:00+9n3589100 0.1 1004182
05:00+7nnw349198 0.1 1005118
08:00+9nnw33785 0.0 1005357
11:00+12nw4357100 0.0 10061252
14:00+14nnw3347100 0.0 10071476
17:00+15nnw3343100 0.0 10071652
20:00+13nnw2454100 0.0 1007115
25 may, wed
wed2523:00+10wnw2258100 0.0 100810
02:00+10sw1158100 0.0 100810
05:00+8sw3366100 0.0 100833
08:00+10nw4669100 0.0 1009268
11:00+14wnw565786 0.0 10101105
14:00+15w6751100 0.1 10101966
17:00+12nw765975 0.1 10111226
20:00+10nw566396 0.0 1012905
26 may, thu
thu2623:00+8wnw347596 0.1 101397
02:00+7nw377925 0.1 1014181
05:00+5wnw34845 0.1 101477
08:00+8wnw46710 0.0 1015351
11:00+11w45515 0.0 10151531
14:00+14wsw564395 0.0 10152220
17:00+13w684699 0.0 10151904
20:00+13sw4755100 0.0 1014483
27 may, fri
fri2723:00+9ssw5126847 0.0 1014239
02:00+10s71672100 0.0 1011390
05:00+11ssw81867100 0.0 1009495
08:00+12ssw81678100 0.4 1008655
11:00+13ssw91681100 1.0 10071525
14:00+12sw81291100 2.0 1006905
17:00+16sw81169100 2.6 10051477
20:00+15sw7117359 1.1 1004586